Location: Cueva de Ratón
(10.1013°N, 67.6606°W)
Time: 03:13:28
(UTC+00:00)

Cosmos 1812 Rocket - Pass Details

Date: 02 December 2023
Orbit: 602 x 630 km, 82.5° (Epoch: 27 February)

Event Time Altitude Azimuth Distance (km) Brightness Sun altitude
Rises 22:25:10 0° 191° (S) 2,842 7.5 -4.9°
Reaches altitude 10° 22:27:24 10° 195° (SSW) 1,939 6.7 -5.4°
Maximum altitude 22:31:37 59° 274° (W) 697 4.2 -6.4°
Drops below altitude 10° 22:35:50 10° 354° (N) 1,941 6.0 -7.4°
Sets 22:38:05 0° 358° (N) 2,845 6.8 -7.9°
